sat.trackr.live / text

‹ back to catalog

LYRA-4

NORAD 64691 · 2025-140A

PAYLOAD ACTIVE UNKNOWN

§ Identity

Operator
Country
AUS
Launch date
2025-06-28
Launch site
RLLB
Launch vehicle
Mass (kg)
RCS (m²)

External: N2YO · Heavens-Above · Gunter

§ Orbital elements

Epoch: 2026-09-21T20:12:09.205344Z

Period
97.78 min
Inclination
96.0100°
Eccentricity
0.0010966
Mean motion
14.72697871 rev/d
Perigee alt
644.8 km
Apogee alt
660.2 km
Semi-major
7,030.6 km
B*
1.3016e-4
RAAN
0.1608°
Arg perigee
237.9432°
Mean anomaly
122.0717°
Rev number
6,628

§ Raw data

LYRA-41 64691U 25140A   26264.84177321  .00000801  00000+0  13016-3 0  99932 64691  96.0100   0.1608 0010966 237.9432 122.0717 14.72697871 66285

JSON: /api/v1/satellites/64691 · /tle

For live sub-satellite position, see the globe view (requires WebGL).

§ Visibility from observer

Set your observer location to see the next 7 days of passes ≥ 10°. The values pass through the URL so the page stays shareable.

No JS? Fill the form by hand. The geolocation button needs JavaScript.

§ Radio — SatNOGS DB

ModeDescriptionDownlinkUplink
FM Telemetry 400.503 MHz

1 transmitter · refreshed weekly from db.satnogs.org